[[{"header":{"parameterUnit":"m.s-1","parameterCategory":1,"la1":30.2991,"la2":30.254,"lo1":-89.0895,"lo2":-89.0444,"dy":0.0017,"dx":0.0017,"nx":28,"ny":28,"refTime":"2024-05-20T03:00:00:Z","depth":0,"parameterNumber":2,"parameterNumberName":"U-component_of_WINDS"},"data":[0,0,0,0,0,0,0,0,0,0,0,0,0,0,0,0,0,0,0,0,0,0,0,0,0,0,0,0,0,0,0,0,0,0,0,0,0,0,0,0,0,0,0,0,0,0,0,0,0,0,0,0,0,0,0,0,0,0,-2.7495,-2.7495,0,-2.7524,-2.7525,-2.7525,-2.7489,-2.7488,-2.7487,-2.7485,-2.7514,-2.7516,-2.7518,0,0,0,0,0,0,0,0,0,0,0,0,0,-2.7407,-2.7409,-2.7495,-2.7495,-2.7496,-2.7524,-2.7525,-2.7525,-2.7489,-2.7488,-2.7486,-2.7485,-2.7513,-2.7516,-2.7518,0,0,0,0,0,0,0,0,0,0,0,0,0,-2.7442,-2.741,-2.7495,-2.7481,-2.7481,-2.7524,-2.7525,-2.7525,-2.749,-2.7488,-2.7486,-2.7484,-2.7512,-2.7515,-2.7518,-2.7576,0,0,-2.7527,-2.7529,0,0,0,0,0,0,0,0,-2.744,-2.7445,-2.7483,-2.7482,-2.7481,-2.7501,-2.7504,-2.7542,-2.749,-2.7486,-2.7485,-2.7483,-2.7511,-2.7514,-2.7524,-2.7577,-2.7579,-2.7528,-2.7529,-2.7531,-2.7532,0,0,0,0,0,0,0,-2.7438,-2.7444,-2.7506,-2.7484,-2.7483,-2.7474,-2.7476,-2.7511,-2.7509,-2.7486,-2.7484,-2.7488,-2.751,-2.7521,-2.7524,-2.7579,-2.7528,-2.753,-2.7532,-2.7533,-2.7682,-2.7684,0,0,0,0,0,0,-2.7437,-2.7442,-2.7506,-2.7507,-2.7455,-2.7477,-2.748,-2.7497,-2.7509,-2.7509,-2.749,-2.7486,-2.7517,-2.7521,-2.7525,-2.7593,-2.7531,-2.7533,-2.7535,-2.768,-2.7682,-2.7685,0,0,0,0,0,0,-2.7435,-2.7443,-2.7504,-2.7474,-2.7481,-2.748,-2.75,-2.7498,-2.7509,-2.7511,-2.7511,-2.7501,-2.7516,-2.7521,-2.7564,-2.7594,-2.7535,-2.7537,-2.7677,-2.7681,-2.7684,-2.7731,0,0,0,0,0,0,-2.7433,-2.7442,-2.7465,-2.7475,-2.7483,-2.7543,-2.7502,-2.75,-2.7515,-2.751,-2.7522,-2.7522,-2.7514,-2.756,-2.7567,-2.7597,-2.754,-2.7674,-2.7679,-2.7683,-2.7726,-2.7735,-2.7742,0,0,0,0,0,-2.743,-2.7476,-2.7466,-2.7474,-2.7511,-2.7545,-2.7549,-2.754,-2.7517,-2.7539,-2.7541,-2.7521,-2.759,-2.7564,-2.7572,-2.7604,-2.7672,-2.7677,-2.7682,-2.7723,-2.7733,-2.7742,0,0,0,0,0,0,-2.7469,-2.7477,-2.7466,-2.7517,-2.7531,-2.7539,-2.7566,-2.7552,-2.7572,-2.7567,-2.7555,-2.7557,-2.7603,-2.7608,-2.7579,-2.766,-2.7627,-2.7634,-2.7655,-2.7665,-2.7673,-2.7671,-2.7542,0,0,0,0,0,-2.7483,-2.7511,-2.7517,-2.7561,-2.7569,-2.7567,-2.7581,-2.7573,-2.7586,-2.7592,-2.7596,-2.761,-2.7634,-2.765,-2.7673,-2.7727,-2.7729,-2.7753,-2.7761,-2.7768,-2.7773,-2.7802,-2.7813,-2.7701,-2.7701,-2.7701,0,0,-2.7513,-2.7522,-2.754,-2.7569,-2.7579,-2.7607,-2.7571,-2.7603,-2.7624,-2.7596,-2.7637,-2.7641,-2.7655,-2.7704,-2.7726,-2.7709,-2.7805,-2.7774,-2.7779,-2.7781,-2.7808,-2.7819,-2.7828,-2.7704,-2.7703,-2.7703,0,0,-2.7583,-2.7592,-2.763,-2.7641,-2.7656,-2.7655,-2.7664,-2.7675,-2.7676,-2.7718,-2.7698,-2.7722,-2.7765,-2.7776,-2.7787,-2.7862,-2.7845,-2.787,-2.7911,-2.794,-2.7949,-2.7956,-2.7983,-2.7992,-2.7876,-2.7876,-2.7876,0,-2.7618,-2.766,-2.7651,-2.7685,-2.7698,-2.7676,-2.7714,-2.7725,-2.7747,-2.7757,-2.7738,-2.7791,-2.7799,-2.785,-2.7869,-2.7879,-2.7889,-2.7867,-2.7948,-2.7956,-2.7963,-2.7988,-2.7998,-2.7879,-2.7878,-2.7878,-2.7878,0,-2.7703,-2.7733,-2.7762,-2.7784,-2.7801,-2.7837,-2.7833,-2.7851,-2.7843,-2.7843,-2.7885,-2.7894,-2.7918,-2.793,-2.7922,-2.7981,-2.797,-2.795,-2.7916,-2.7977,-2.8,-2.8009,-2.7883,-2.7882,-2.7881,-2.788,0,0,-2.7795,-2.7814,-2.7824,-2.7834,-2.785,-2.7873,-2.7908,-2.7932,-2.7948,-2.7964,-2.7993,-2.803,-2.8012,-2.8025,-2.8018,-2.8043,-2.8101,-2.802,-2.802,-2.8034,-2.8166,-2.818,-2.8191,-2.8091,-2.8093,-2.8094,-2.8165,0,-2.7864,-2.7925,-2.7918,-2.7976,-2.8003,-2.7983,-2.8014,-2.8027,-2.8029,-2.8052,-2.8054,-2.808,-2.8055,-2.8062,-2.8087,-2.8089,-2.8127,-2.8084,-2.8116,-2.8118,-2.8112,-2.8203,-2.8217,-2.8283,-2.8174,-2.8175,-2.8176,0,-2.7952,-2.7972,-2.8032,-2.8045,-2.8056,-2.8083,-2.8105,-2.8128,-2.8143,-2.8142,-2.8158,-2.8146,-2.8181,-2.8148,-2.8196,-2.8167,-2.818,-2.8183,-2.8186,-2.8187,-2.8149,-2.8206,-2.8304,-2.8314,-2.8191,-2.8189,-2.8188,0,-2.8012,-2.8055,-2.8096,-2.8105,-2.8121,-2.8141,-2.8148,-2.8161,-2.8176,-2.8196,-2.8206,-2.8229,-2.8241,-2.826,-2.8255,-2.8231,-2.8304,-2.827,-2.8303,-2.8304,-2.8318,-2.8317,-2.8419,-2.8329,-2.8329,-2.8329,-2.8329,0,-2.8089,-2.8126,-2.8123,-2.8149,-2.819,-2.8183,-2.8225,-2.8229,-2.8241,-2.8267,-2.8252,-2.8277,-2.827,-2.8294,-2.8291,-2.833,-2.8336,-2.8337,-2.8335,-2.8337,-2.8337,-2.8344,-2.8339,-2.8331,-2.8331,-2.833,-2.833,0,-2.8162,-2.8162,-2.8206,-2.8218,-2.8222,-2.8252,-2.8262,-2.8286,-2.8287,-2.832,-2.8327,-2.8329,-2.8357,-2.8355,-2.8386,-2.8384,-2.8433,-2.8427,-2.8428,-2.8426,-2.8459,-2.8455,-2.8568,-2.8582,-2.8485,-2.8486,-2.8486,0,-2.821,-2.8239,-2.8254,-2.8271,-2.828,-2.8306,-2.8322,-2.8317,-2.8334,-2.8353,-2.8375,-2.8402,-2.8423,-2.8468,-2.8472,-2.8496,-2.8489,-2.8527,-2.8493,-2.8494,-2.8489,-2.8486,-2.8489,-2.8533,-2.8535,-2.8535,-2.8536,0,-2.8295,-2.8294,-2.8317,-2.8342,-2.8361,-2.838,-2.8396,-2.8411,-2.8407,-2.8427,-2.8456,-2.8472,-2.8505,-2.8531,-2.8555,-2.8562,-2.8548,-2.8547,-2.8556,-2.8558,-2.8557,-2.8557,-2.8445,-2.8544,-2.8543,-2.8543,-2.8542,-2.8542,-2.8356,-2.8381,-2.8396,-2.8423,-2.8435,-2.8452,-2.8475,-2.8479,-2.8504,-2.853,-2.8525,-2.8558,-2.8572,-2.8602,-2.8612,-2.8637,-2.8623,-2.8636,-2.8639,-2.8642,-2.8645,-2.8555,-2.8641,-2.8641,-2.8641,-2.864,-2.864,0,-2.844,-2.8449,-2.8474,-2.8498,-2.852,-2.8506,-2.8525,-2.8543,-2.8572,-2.8587,-2.8608,-2.8642,-2.8668,-2.8674,-2.8699,-2.8718,-2.8712,-2.8725,-2.8722,-2.8724,-2.8656,-2.8646,-2.8729,-2.8729,-2.8729,-2.8729,-2.8729,-2.8729,-2.8485,-2.8526,-2.8527,-2.8574,-2.8582,-2.8614,-2.8625,-2.864,-2.8652,-2.869,-2.8712,-2.8717,-2.8729,-2.8755,-2.8778,-2.8779,-2.8789,-2.8803,-2.8802,-2.8738,-2.8729,-2.872,-2.871,-2.8806,-2.8806,-2.8867,-2.8868,-2.8868]},{"header":{"parameterUnit":"m.s-1","parameterCategory":1,"la1":30.2991,"la2":30.254,"lo1":-89.0895,"lo2":-89.0444,"dy":0.0017,"dx":0.0017,"nx":28,"ny":28,"refTime":"2024-05-20T03:00:00:Z","depth":0,"parameterNumber":3,"parameterNumberName":"V-component_of_WINDS"},"data":[0,0,0,0,0,0,0,0,0,0,0,0,0,0,0,0,0,0,0,0,0,0,0,0,0,0,0,0,0,0,0,0,0,0,0,0,0,0,0,0,0,0,0,0,0,0,0,0,0,0,0,0,0,0,0,0,0,0,0.4272,0.4271,0,0.4204,0.4203,0.4203,0.4153,0.4153,0.4153,0.4152,0.4081,0.408,0.4078,0,0,0,0,0,0,0,0,0,0,0,0,0,0.4358,0.4356,0.4272,0.4271,0.427,0.4204,0.4203,0.4202,0.4153,0.4153,0.4152,0.4152,0.4081,0.408,0.4078,0,0,0,0,0,0,0,0,0,0,0,0,0,0.4308,0.4356,0.4272,0.4238,0.4234,0.4204,0.4203,0.4202,0.4154,0.4153,0.4152,0.4152,0.4082,0.408,0.4078,0.4076,0,0,0.4071,0.407,0,0,0,0,0,0,0,0,0.4311,0.4305,0.4244,0.424,0.4236,0.4187,0.4207,0.416,0.4154,0.4184,0.4152,0.4151,0.4116,0.4111,0.41,0.4073,0.407,0.407,0.4069,0.4068,0.4067,0,0,0,0,0,0,0,0.4315,0.4308,0.4245,0.4243,0.4238,0.4226,0.4218,0.4198,0.4154,0.4181,0.4178,0.417,0.4114,0.4102,0.4098,0.4068,0.4071,0.4069,0.4067,0.4066,0.4038,0.4038,0,0,0,0,0,0,0.4324,0.4311,0.4247,0.4243,0.4273,0.4225,0.4216,0.4203,0.4155,0.4147,0.4171,0.4168,0.4106,0.4101,0.4095,0.4091,0.4068,0.4066,0.4065,0.4037,0.4038,0.4038,0,0,0,0,0,0,0.4326,0.4318,0.425,0.4276,0.4266,0.4224,0.421,0.4202,0.419,0.4147,0.4139,0.4167,0.4106,0.4098,0.4081,0.4088,0.4065,0.4063,0.4036,0.4037,0.4038,0.4081,0,0,0,0,0,0,0.4328,0.4319,0.4318,0.4276,0.4265,0.4237,0.421,0.4201,0.4186,0.4182,0.4141,0.4133,0.4105,0.4085,0.4079,0.4084,0.4061,0.4035,0.4037,0.4038,0.4079,0.4084,0.4088,0,0,0,0,0,0.4331,0.4332,0.4318,0.4311,0.4263,0.4238,0.4231,0.4199,0.4187,0.4186,0.4158,0.4135,0.4088,0.4084,0.4077,0.4081,0.4035,0.4036,0.4038,0.4077,0.4083,0.4087,0,0,0,0,0,0,0.4375,0.4326,0.431,0.4298,0.4273,0.423,0.4227,0.4206,0.4183,0.418,0.414,0.4131,0.4119,0.4098,0.4094,0.4077,0.4059,0.4059,0.4091,0.4096,0.41,0.4105,0.4059,0,0,0,0,0,0.4384,0.4368,0.4326,0.4319,0.4307,0.427,0.4257,0.4235,0.4207,0.4196,0.4167,0.414,0.4119,0.4107,0.4085,0.4076,0.4067,0.4076,0.408,0.4084,0.4084,0.4079,0.4082,0.4043,0.4043,0.4043,0,0,0.44,0.4372,0.4364,0.4327,0.4305,0.4289,0.4261,0.4245,0.4233,0.4193,0.4176,0.4154,0.4121,0.4109,0.4102,0.4091,0.4093,0.4085,0.4088,0.4087,0.408,0.4084,0.4088,0.4044,0.4043,0.4043,0,0,0.4423,0.44,0.4392,0.4371,0.4338,0.4313,0.4312,0.4272,0.4256,0.4239,0.4209,0.4194,0.4159,0.4137,0.4122,0.4139,0.4116,0.4133,0.4154,0.415,0.4153,0.4155,0.4162,0.4164,0.4133,0.4133,0.4134,0,0.4448,0.4423,0.439,0.4377,0.4362,0.4326,0.4318,0.4299,0.4261,0.4251,0.424,0.4197,0.4172,0.4155,0.4159,0.4147,0.4144,0.4137,0.4155,0.4157,0.4159,0.4165,0.4167,0.4136,0.4135,0.4135,0.4135,0,0.4456,0.444,0.4437,0.4403,0.4387,0.4377,0.4342,0.433,0.431,0.4286,0.4269,0.4239,0.4211,0.4205,0.4184,0.4185,0.418,0.4163,0.4143,0.4166,0.4171,0.4172,0.4139,0.4138,0.4137,0.4137,0,0,0.4503,0.4451,0.4451,0.4435,0.4397,0.4384,0.4372,0.4346,0.4338,0.4313,0.4302,0.4274,0.4258,0.4241,0.4218,0.4214,0.423,0.4197,0.4195,0.4204,0.4229,0.4243,0.4246,0.4215,0.4215,0.4215,0.4232,0,0.452,0.4497,0.4468,0.4455,0.444,0.4407,0.4397,0.4372,0.435,0.4334,0.431,0.4291,0.4271,0.4261,0.4255,0.4229,0.4234,0.4227,0.4204,0.4204,0.4214,0.4248,0.4262,0.4279,0.4234,0.4234,0.4234,0,0.4536,0.4515,0.4501,0.4466,0.4458,0.445,0.4424,0.4409,0.4381,0.4366,0.4347,0.4323,0.4309,0.4292,0.4272,0.4268,0.4257,0.4243,0.4243,0.4239,0.4221,0.4246,0.4284,0.4287,0.4237,0.4237,0.4237,0,0.4573,0.454,0.4528,0.4515,0.4474,0.4469,0.4451,0.4422,0.4409,0.4387,0.4378,0.4354,0.4341,0.4323,0.4293,0.4283,0.4277,0.4257,0.4263,0.4264,0.4263,0.4264,0.43,0.4256,0.4256,0.4256,0.4256,0,0.4594,0.4587,0.4544,0.4536,0.4528,0.4494,0.4486,0.4466,0.4441,0.4429,0.4398,0.4388,0.4348,0.4333,0.4309,0.4297,0.4291,0.4278,0.4272,0.4281,0.4282,0.4273,0.4271,0.4257,0.4257,0.4257,0.4256,0,0.4633,0.4604,0.4588,0.4551,0.4542,0.4537,0.4505,0.4496,0.4473,0.4458,0.4453,0.4417,0.4397,0.4366,0.4336,0.432,0.4313,0.4302,0.4322,0.4319,0.4327,0.4327,0.4359,0.4362,0.4316,0.4317,0.4317,0,0.4649,0.4643,0.4606,0.4596,0.458,0.4564,0.4551,0.4518,0.4506,0.4475,0.447,0.4449,0.4429,0.44,0.4371,0.4349,0.4337,0.435,0.4334,0.4343,0.4338,0.4339,0.4338,0.4354,0.4355,0.4355,0.4356,0,0.4681,0.4667,0.465,0.4628,0.4613,0.4594,0.4573,0.4567,0.4529,0.4517,0.4497,0.4482,0.4454,0.4433,0.4407,0.4388,0.4366,0.4361,0.4362,0.4371,0.4383,0.4377,0.4333,0.436,0.436,0.436,0.4359,0.4359,0.4709,0.4703,0.4676,0.4658,0.4639,0.4621,0.4611,0.4588,0.4571,0.4546,0.4527,0.4509,0.4482,0.4446,0.4429,0.4414,0.4404,0.4404,0.4404,0.4405,0.4409,0.4386,0.4409,0.4409,0.4409,0.4408,0.4408,0,0.4739,0.4721,0.4705,0.4677,0.4664,0.4645,0.4621,0.4611,0.4595,0.4573,0.4555,0.4533,0.4513,0.4483,0.4461,0.4455,0.4444,0.445,0.445,0.4447,0.4419,0.4421,0.446,0.4459,0.4459,0.4459,0.4459,0.4459,0.4754,0.4742,0.4726,0.4705,0.4686,0.4669,0.4657,0.464,0.4622,0.46,0.4583,0.4564,0.4539,0.4515,0.4496,0.4487,0.4481,0.449,0.4479,0.4453,0.4448,0.4444,0.4446,0.4489,0.4489,0.4508,0.4508,0.4508]}]]